Page, AZ

8:46 PM MDT on April 30, 2017 (GMT -0600)
Page Municipal

Weather History for KPGA - November, 2012

Change the Weather History Date:

Friday, November 2, 2012

  Actual Average Record
Temperature  
Mean Temperature 58 °F -  
Max Temperature 69 °F 60 °F 75 °F (2015)
Min Temperature 48 °F 39 °F 29 °F (1989)
Degree Days  
Heating Degree Days 6    
Growing Degree Days 8 (Base 50)    
Moisture  
Dew Point 20 °F    
Average Humidity 24    
Maximum Humidity 33    
Minimum Humidity 6    
Precipitation  
Precipitation 0.00 in - - ()
Sea Level Pressure  
Sea Level Pressure 29.96 in    
Wind  
Wind Speed 3 mph (WSW)    
Max Wind Speed 6 mph    
Max Gust Speed -    
Visibility 10 miles    
Events      
Averages and records for this station are not official NWS values.
T = Trace of Precipitation, MM = Missing Value Source: NWS Daily Summary

Daily Weather History Graph

Daily Weather History Graph

Search for Another Location

Airport or City:

Trip Planner

Search our weather history database for the weather conditions in past years. The results will help you decide how hot, cold, wet, or windy it might be!

Date:

Astronomy

Nov. 02, 2012 Rise Set
Actual Time 6:51 AM MST 5:26 PM MST
Civil Twilight 6:24 AM MST 5:53 PM MST
Nautical Twilight 5:53 AM MST 6:24 PM MST
Astronomical Twilight 5:23 AM MST 6:54 PM MST
Moon 8:20 PM MST (11/2) 10:11 AM MST (11/2)
Length of Visible Light 11h 29m
Length of Day
10h 35m
Waning Gibbous, 86% of the Moon is Illuminated
Nov 2
Waning Gibbous
Nov 6
Last Quarter
Nov 13
New
Nov 20
First Quarter
Nov 28
Full

Hourly Weather History & Observations

Time (MST) Temp. Dew Point Humidity Pressure Visibility Wind Dir Wind Speed Gust Speed Precip Events Conditions
12:53 AM 52.0 °F 21.9 °F 31% 29.94 in 10.0 mi WSW 4.6 mph - N/A   Clear
1:53 AM 53.1 °F 19.9 °F 27% 29.93 in 10.0 mi WSW 3.5 mph - N/A   Clear
2:53 AM 52.0 °F 19.9 °F 28% 29.93 in 10.0 mi WNW 3.5 mph - N/A   Clear
3:53 AM 48.9 °F 21.0 °F 33% 29.94 in 10.0 mi Calm Calm - N/A   Clear
4:53 AM 50.0 °F 19.9 °F 31% 29.95 in 10.0 mi Calm Calm - N/A   Clear
5:53 AM 50.0 °F 21.9 °F 33% 29.96 in 10.0 mi SW 4.6 mph - N/A   Clear
6:53 AM 50.0 °F 21.0 °F 32% 29.97 in 10.0 mi NW 3.5 mph - N/A   Clear
7:53 AM 51.1 °F 21.9 °F 32% 30.00 in 10.0 mi Calm Calm - N/A   Clear
8:53 AM 54.0 °F 21.0 °F 28% 30.01 in 10.0 mi Calm Calm - N/A   Clear
9:53 AM 57.0 °F 19.0 °F 23% 30.01 in 10.0 mi WNW 3.5 mph - N/A   Clear
10:53 AM 59.0 °F 21.9 °F 24% 30.01 in 10.0 mi North 4.6 mph - N/A   Clear
11:53 AM 61.0 °F 19.9 °F 21% 29.99 in 10.0 mi Calm Calm - N/A   Unknown
12:53 PM 63.0 °F 23.0 °F 22% 29.95 in 10.0 mi Variable 3.5 mph - N/A   Clear
1:53 PM 66.0 °F 18.0 °F 16% 29.93 in 10.0 mi East 3.5 mph - N/A   Clear
2:53 PM 68.0 °F 18.0 °F 15% 29.90 in 10.0 mi NE 3.5 mph - N/A   Unknown
3:53 PM 68.0 °F 17.1 °F 14% 29.90 in 10.0 mi ENE 5.8 mph - N/A   Clear
4:53 PM 68.0 °F 17.1 °F 14% 29.90 in 10.0 mi Calm Calm - N/A   Clear
5:53 PM 59.0 °F 21.9 °F 24% 29.93 in 10.0 mi Calm Calm - N/A   Clear
6:53 PM 57.0 °F 23.0 °F 27% 29.94 in 10.0 mi Calm Calm - N/A   Clear
7:53 PM 55.0 °F 21.9 °F 28% 29.95 in 10.0 mi SW 4.6 mph - N/A   Clear
8:53 PM 54.0 °F 19.9 °F 26% 29.97 in 10.0 mi SSE 5.8 mph - N/A   Clear
9:53 PM 55.0 °F 19.0 °F 24% 29.98 in 10.0 mi SSW 4.6 mph - N/A   Clear
10:53 PM 53.1 °F 19.0 °F 26% 29.99 in 10.0 mi SW 4.6 mph - N/A   Clear
11:53 PM 48.9 °F 21.0 °F 33% 30.01 in 10.0 mi Calm Calm - N/A   Clear